Location: *
(48.4333°N, 5.0333°W)
Time: 16:34:35
(UTC+00:00)

DMSP B5D2-2 - Pass Details

Date: 09 April 2020
Orbit: 791 x 805 km, 98.3° (Epoch: 05 June)

Event Time Altitude Azimuth Distance (km) Brightness Sun altitude
Rises 20:38:39 0° 14° (NNE) 3,305 7.5 -15.4°
Reaches altitude 10° 20:40:59 10° 15° (NNE) 2,373 6.8 -15.8°
Maximum altitude 20:46:15 86° 104° (ESE) 805 4.0 -16.5°
Drops below altitude 10° 20:51:29 10° 194° (SSW) 2,364 6.3 -17.2°
Sets 20:53:48 0° 195° (SSW) 3,292 7.1 -17.5°
